Regional Weather Roundup
Issued by NWS

Home | Current Version | Previous Version | Text Only | Print | Product List | Glossary On
Versions: 1 2 3 4 5 6 7 8 9 10 11 12 13 14 15 16 17 18 19 20 21 22 23 24 25 26 27 28 29 30 31 32 33 34 35 36 37 38 39 40 41 42 43 44 45 46 47 48 49 50
000
ASCA44 KEWX 180520
RWRMX

LATIN AMERICA AND CARIBBEAN REGIONAL WEATHER ROUNDUP
NATIONAL WEATHER SERVICE AUSTIN/SAN ANTONIO TX
1200 AM CDT THU SEP 18 2014

NOTE: "FAIR" INDICATED FEW OR NO CLOUDS BELOW 12,000 FEET WITH NO
SIGNIFICANT WEATHER AND/OR OBSTRUCTIONS TO VISIBILITY.

BAJA CALIFORNIA

CITY           SKY/WX    TMP DP  RH WIND       PRES   REMARKS
LA PAZ         CLEAR     77  72  83 CALM      29.88
MEXICALI       CLEAR     90  63  40 SE6       29.67  HX  90
S.J. DEL CABO    N/A    N/A N/A N/A MISG        N/A
TIJUANA        PTCLDY    72  64  78 W9        29.83R

NORTHWESTERN MEXICO

CITY           SKY/WX    TMP DP  RH WIND       PRES   REMARKS
CULIACAN       CLOUDY    84  77  79 CALM      29.85  HX  94
DURANGO        CLEAR     66  57  72 S8        30.16S
LOS MOCHIS     PTCLDY    81  73  78 CALM      29.83F

NORTHEASTERN MEXICO

CITY           SKY/WX    TMP DP  RH WIND       PRES   REMARKS
CHIHUAHUA      MOCLDY    70  55  60 CALM      30.04
MONTERREY      CLEAR     77  72  83 E7        29.89F
REYNOSA        CLEAR     75  72  88 E5        29.89
TORREON        PTCLDY    81  59  47 CALM      29.97R

WESTERN MEXICO

CITY           SKY/WX    TMP DP  RH WIND       PRES   REMARKS
AGUASCALIENTES CLEAR     59  55  88 E5        30.24
DEL BAJIO      PTCLDY    63  55  77 CALM      30.26R
GUADALAJARA    PTCLDY    64  61  88 CALM      30.14
MAZATLAN       PTCLDY    77  75  94 NE7       29.82S
P. VALLARTA    MOCLDY    77  73  88 CALM      29.84R
ZACATECAS      PTCLDY    64  50  59 S7        30.25R

CENTRAL MEXICO

CITY           SKY/WX    TMP DP  RH WIND       PRES   REMARKS
CUERNAVACA     CLEAR     66  61  82 CALM      30.14R
MEXICO CITY    PTCLDY    63  48  59 SE7       30.33S
MORELIA        PTCLDY    61  59  94 CALM      30.22
QUERETARO      MOCLDY    64  61  88 SE6       30.29R
S. LUIS POTOSI PTCLDY    64  59  82 CALM      30.22R
TOLUCA         PTCLDY    50  45  81 E5        30.42R WCI  48

SOUTHERN MEXICO

CITY           SKY/WX    TMP DP  RH WIND       PRES   REMARKS
ACAPULCO       CLOUDY    79  77  94 MISG      29.92S
OAXACA         MOCLDY    66  61  82 CALM      30.23R
VERACRUZ       PTCLDY    77  73  88 W5        29.90R

YUCATAN PENINSULA

CITY           SKY/WX    TMP DP  RH WIND       PRES   REMARKS
CAMPECHE       MOCLDY    79  79 100 E8        29.92S
CANCUN         CLEAR     77  75  94 SE6       29.97F
COZUMEL        CLEAR     72  72 100 CALM      29.97F
MERIDA         CLEAR     79  72  78 E13       29.95S
TAPACHULA      PTCLDY    81  75  83 CALM      29.96S
TUX. GUTIERREZ CLEAR     73  70  88 CALM      29.97S
VILLAHERMOSA   PTCLDY    79  75  89 CALM      29.93S

CENTRAL AMERICA

CITY           SKY/WX    TMP DP  RH WIND       PRES   REMARKS
MANAGUA        PTCLDY    79  73  83 SE7       29.92R

CARIBBEAN

CITY           SKY/WX    TMP DP  RH WIND       PRES   REMARKS
ARUBA          PTCLDY    82  75  78 E14       29.89S
KINGSTON       PTCLDY    82  73  74 N10       29.94S
SAN JUAN       PTCLDY    81  79  94 SE5       29.97S
SANTO DOMINGO  PTCLDY    75  73  94 VRB3      29.94F

$$



USA.gov is the U.S. government's official web portal to all federal, state and local government web resources and services.